Dewpoint
25 25 25 25 39 47 59 66 66 66 65 64 64 64 63 64 64 64 64 65 65 65 65 65 65 65 65 65 64 63 62 60 54 53 51 47 46 45 45 49 53 46 48
23 24 26 26 26 28 44 60 66 66 66 64 64 64 64 64 64 66 65 65 65 66 66 65 65 65 65 64 63 61 57 54 50 49 43 43 39 41 43 43 42 43 45
23 24 26 27 29 32 39 48 63 66 66 66 66 64 65 64 65 65 66 66 66 66 66 66 65 64 65 64 62 59 56 51 47 47 44 37 33 41 41 42 43 44 45
26 27 27 27 36 43 53 56 62 65 67 67 66 65 64 63 64 65 66 66 66 66 66 65 65 64 63 61 59 54 51 49 46 45 45 44 42 36 34 41 43 45 45
27 27 27 26 27 40 57 62 64 66 67 67 66 66 65 64 64 65 65 65 65 66 66 64 63 59 58 55 53 48 47 45 46 43 45 45 44 44 42 39 41 44 44
26 27 27 26 28 40 55 62 63 65 67 67 67 66 65 64 64 64 64 62 62 60 60 60 58 56 52 50 48 47 47 46 46 46 45 44 43 43 43 42 42 41 42
27 27 27 26 28 35 46 59 63 64 66 67 66 66 65 64 64 64 64 59 57 54 54 55 53 51 49 48 48 47 46 46 46 46 46 46 46 45 44 43 40 39 38
26 28 28 28 27 33 45 55 62 64 65 66 66 66 66 65 64 64 63 60 58 54 51 51 50 48 48 48 47 47 46 47 45 44 44 43 42 42 41 39 37 34 35
27 28 29 31 31 31 39 52 59 62 64 66 66 66 66 65 64 64 61 59 54 52 49 48 48 47 47 48 46 45 44 44 43 41 40 39 39 39 39 39 38 36 32
26 27 29 30 31 32 34 50 56 60 63 65 66 66 65 64 63 61 58 54 52 49 47 47 47 47 47 46 46 44 43 40 40 38 37 37 37 36 36 36 36 36 34
27 28 29 31 34 37 39 47 56 60 63 65 65 65 63 63 61 59 56 52 49 47 46 46 45 45 44 44 42 41 40 38 37 37 36 35 36 35 34 34 34 34 35
34 33 34 35 43 50 54 54 57 60 63 64 63 63 62 59 58 53 52 50 49 48 48 45 45 44 44 42 41 39 38 37 36 36 34 34 34 33 34 34 34 36 36
34 36 36 36 38 48 55 57 58 60 62 63 62 59 56 56 53 52 49 48 47 46 45 44 44 43 43 41 41 39 37 36 35 34 33 33 33 33 34 34 34 36 35
35 33 31 36 38 45 54 56 57 59 59 57 56 54 54 52 52 49 48 47 46 44 44 44 43 42 42 38 37 36 34 33 33 33 33 33 33 33 34 34 36 35 35
20 20 22 28 36 41 51 54 55 56 54 53 52 51 51 50 48 47 46 44 44 43 43 41 40 39 38 36 35 34 32 33 32 32 33 34 34 34 36 35 35 34 32
21 20 22 29 33 38 49 51 51 53 53 51 50 48 49 48 46 45 45 43 43 41 40 39 38 37 35 36 35 34 32 32 31 32 32 34 34 34 34 34 34 33 31
21 21 20 33 35 39 46 50 49 48 50 50 47 47 46 45 45 44 42 40 41 39 38 37 36 34 35 35 35 33 32 31 31 31 32 32 33 34 34 33 33 32 33
16 16 23 33 42 42 45 50 48 47 48 45 45 45 46 42 40 41 38 37 38 37 35 34 35 35 35 35 34 32 32 31 32 31 32 32 31 32 33 33 32 31 32
20 24 33 42 42 43 43 49 47 46 46 44 44 45 44 41 38 37 35 34 34 33 33 33 34 34 34 34 34 32 31 30 31 33 31 32 32 32 34 32 31 31 31
28 33 34 37 43 42 43 48 47 45 44 44 44 44 42 41 38 36 34 34 35 33 33 32 33 33 32 34 33 32 32 31 30 30 32 33 32 33 32 31 31 30 31
31 32 41 43 42 42 42 45 46 45 45 44 43 42 41 40 39 36 35 35 33 33 32 31 32 33 33 33 33 32 31 30 30 32 30 30 33 32 32 31 32 31 32
32 42 42 40 41 42 42 42 45 42 42 42 41 40 39 37 36 37 35 34 33 32 31 31 31 32 33 33 34 33 32 32 30 31 28 31 33 31 31 31 31 31 31
33 34 35 38 40 41 41 42 43 40 38 38 37 37 36 36 35 35 33 33 33 32 31 31 31 31 32 32 33 33 33 32 31 31 31 31 31 30 30 31 30 30 31
34 32 34 39 38 37 36 39 38 38 38 37 36 35 34 34 35 36 35 34 32 32 32 32 31 31 30 30 30 31 30 29 31 31 31 30 30 30 30 30 31 31 31
37 34 37 38 37 36 36 35 36 37 37 35 35 34 35 34 34 34 33 33 34 33 33 33 32 30 29 29 30 29 29 29 32 31 30 30 30 29 30 29 29 30 30
38 38 37 35 37 38 37 37 37 37 35 34 33 34 34 34 33 33 32 34 34 34 34 33 33 32 31 31 31 31 32 32 30 30 29 28 29 29 29 29 28 29 29
Lifted_Index
7 7 7 7 7 5 2 -0 -2 -3 -3 -3 -3 -3 -3 -2 -1 0 -0 -1 -2 -2 -1 -1 -1 -1 -2 -3 -3 -3 -3 -2 -2 -2 -1 -1 -1 -1 1 4 7 10 11
6 6 6 6 6 6 4 1 -2 -3 -3 -3 -3 -3 -3 -2 -1 -0 -1 -2 -2 -2 -2 -1 -2 -2 -3 -3 -3 -3 -3 -2 -2 -1 -1 -0 -0 0 3 7 10 11 11
6 6 6 6 5 5 5 2 -1 -3 -3 -3 -3 -3 -3 -2 -2 -1 -2 -3 -3 -3 -3 -3 -3 -3 -3 -3 -3 -3 -3 -2 -2 -1 -1 -0 0 1 5 8 10 11 11
6 6 6 5 5 5 4 1 -1 -3 -4 -4 -3 -3 -3 -3 -2 -2 -3 -4 -4 -4 -4 -4 -4 -4 -4 -4 -3 -3 -3 -2 -2 -1 -1 -0 1 3 5 7 9 10 10
6 6 5 5 4 4 3 -0 -2 -4 -4 -4 -4 -4 -4 -4 -3 -3 -4 -4 -5 -4 -4 -4 -4 -4 -4 -4 -3 -3 -2 -2 -2 -1 -1 0 3 6 7 7 8 9 9
6 6 5 5 4 4 3 -0 -3 -4 -4 -4 -4 -4 -4 -4 -4 -4 -4 -5 -5 -5 -4 -4 -4 -4 -4 -4 -3 -3 -2 -2 -2 -1 -0 2 6 8 9 8 7 8 9
6 6 5 5 5 4 3 1 -2 -4 -4 -4 -4 -4 -5 -5 -5 -5 -5 -5 -5 -5 -5 -4 -4 -4 -4 -4 -3 -3 -2 -2 -2 -0 3 7 9 10 10 9 8 8 9
7 6 6 6 5 5 4 2 -0 -3 -4 -4 -4 -5 -5 -5 -6 -6 -6 -6 -6 -5 -5 -4 -4 -4 -4 -4 -3 -3 -2 -1 0 3 8 11 12 12 11 10 9 8 9
7 6 6 6 6 5 5 4 2 -1 -3 -4 -4 -5 -5 -5 -6 -6 -6 -6 -6 -5 -5 -4 -4 -4 -3 -3 -3 -2 -1 1 4 8 11 12 12 12 12 11 11 10 10
7 6 6 6 6 6 6 5 3 0 -2 -4 -4 -5 -5 -6 -6 -6 -6 -6 -6 -5 -5 -4 -3 -3 -3 -2 -2 -1 1 4 8 10 11 11 11 11 12 12 12 11 11
6 6 6 6 6 5 5 5 3 1 -2 -4 -5 -5 -5 -6 -6 -6 -6 -6 -6 -5 -4 -4 -3 -2 -2 -1 -1 1 4 7 10 11 10 9 10 11 11 11 11 12 12
6 6 5 5 5 5 4 3 2 -0 -2 -3 -4 -5 -5 -6 -6 -6 -6 -5 -5 -4 -4 -3 -3 -2 -1 0 1 4 7 9 10 10 8 8 10 11 11 11 11 12 13
5 5 5 5 5 5 3 2 0 -1 -2 -3 -4 -4 -4 -5 -6 -6 -5 -5 -4 -4 -3 -2 -1 -0 1 2 4 7 10 11 10 9 8 9 10 11 11 11 12 13 13
5 5 5 5 5 5 4 2 1 -1 -2 -3 -3 -3 -4 -5 -6 -5 -5 -4 -3 -3 -2 -1 -0 1 3 5 7 10 11 11 10 9 9 10 11 11 11 12 12 13 13
6 6 5 5 5 5 4 3 2 0 -1 -2 -3 -3 -4 -5 -5 -5 -4 -4 -3 -2 -1 -1 0 2 4 7 10 11 11 9 9 9 11 11 11 12 12 13 13 13 13
7 7 6 5 5 5 4 3 2 1 -0 -1 -2 -3 -4 -5 -5 -4 -4 -3 -2 -1 -1 0 1 3 6 9 12 11 10 9 9 10 11 12 12 13 13 13 13 13 13
8 8 7 6 5 4 4 3 3 2 1 -1 -2 -3 -4 -4 -4 -4 -4 -3 -2 -1 -0 1 2 5 9 11 12 11 10 10 11 11 12 12 13 13 14 14 14 13 14
9 9 7 6 5 4 4 3 3 2 1 0 -1 -2 -3 -4 -4 -4 -4 -3 -1 -1 -0 1 3 7 10 12 12 11 11 11 12 12 12 12 13 14 14 14 13 13 14
10 10 8 7 6 5 4 3 2 2 1 1 -1 -2 -3 -4 -4 -4 -4 -3 -1 -1 0 2 5 9 11 12 11 11 11 11 12 12 12 13 13 14 14 14 13 13 13
9 9 8 7 6 5 4 3 2 1 1 1 -0 -1 -3 -4 -4 -4 -4 -2 -1 -0 1 4 8 11 12 11 11 11 12 11 11 11 12 13 14 14 14 13 13 12 12
8 7 7 6 6 5 4 3 2 1 1 1 0 -0 -2 -3 -4 -4 -3 -2 -1 1 3 6 9 11 11 11 11 12 11 11 11 11 12 13 14 14 14 13 13 12 12
6 6 6 6 6 5 4 3 1 1 1 0 0 -0 -1 -2 -3 -3 -2 -1 -0 2 4 7 9 11 11 11 11 11 11 11 11 12 13 14 14 14 14 13 13 12 12
5 5 5 6 5 4 4 3 1 1 0 0 -0 -0 -0 -1 -2 -2 -2 -1 1 3 5 8 10 10 11 10 10 11 12 13 13 13 14 14 14 14 14 13 13 13 12
4 4 4 5 4 4 3 2 1 0 0 0 -0 -1 -1 -1 -1 -1 -1 0 2 4 7 9 10 10 10 10 10 12 13 14 14 14 14 14 14 14 13 13 13 12 12
2 3 3 4 3 3 2 1 0 -0 -0 -0 -1 -1 -1 -1 -1 -0 1 3 6 8 9 10 10 10 9 10 11 12 14 14 14 14 14 13 13 13 13 13 12 12 11
2 2 2 3 3 2 1 0 -0 -1 -1 -1 -1 -1 -1 -0 -0 1 3 6 9 10 10 10 9 9 10 11 12 13 14 15 15 14 13 13 12 12 13 12 12 11 11